Regional Weather Roundup
Issued by NWS Kansas City/Pleasant Hill, MO

Home | Current Version | Previous Version | Graphics & Text | Print | Product List | Glossary Off
Versions: 1 2 3 4 5 6 7 8 9 10 11 12 13 14 15 16 17 18 19 20 21 22 23 24 25 26 27 28 29 30 31 32 33 34 35 36 37 38 39 40 41 42 43 44 45 46 47 48 49 50

000
ASUS43 KEAX 091410
RWREAX

WEATHER ROUNDUP FOR EASTERN KANSAS AND NORTHWEST MISSOURI
NATIONAL WEATHER SERVICE KANSAS CITY/PLEASANT HILL MO
800 AM CST FRI DEC 09 2016

KSZ040-057-103>105-MOZ028-029-037-043-091500-
...KANSAS CITY METROPOLITAN AREA...

CITY           SKY/WX    TMP DP  RH WIND       PRES   REMARKS
K.C. INTL      CLOUDY    15   8  73 NE3       30.63S
K.C. DOWNTOWN  PTCLDY    18  10  71 CALM      30.66S
LEES SUMMIT    MOCLDY    16  11  80 CALM      30.64R
OLATHE - IXD   CLOUDY    15  11  83 SE3       30.64S
OLATHE - OJC   CLOUDY    14  10  84 CALM      30.64R
LAWRENCE       PTCLDY    14  11  87 CALM      30.65F

$$

MOZ001>008-011>017-020>025-030>033-038>040-044>046-053-054-091500-
...NORTHERN AND CENTRAL MISSOURI...

CITY           SKY/WX    TMP DP  RH WIND       PRES   REMARKS
ST. JOSEPH     PTCLDY    11   8  88 CALM      30.65S
MOSBY          SUNNY     10   9  92 CALM      30.66R
WARRENSBURG    PTCLDY    14  10  85 CALM      30.67R
WHITEMAN AFB   CLEAR     16  11  80 NW6       30.64S WCI   7
CLINTON        MOCLDY    14  10  85 CALM      30.67R
SEDALIA        CLEAR     15   9  76 NW3       30.65F
WARSAW         NOT AVBL
CHILLICOTHE      N/A     10   6  84 CALM      30.66S
KIRKSVILLE     CLEAR     10   6  84 W6        30.62R WCI   0

$$

MOZ041-047>049-056>058-063>065-088>090-097-091500-
...EASTERN AND SOUTHERN MISSOURI...

CITY           SKY/WX    TMP DP  RH WIND       PRES   REMARKS
ST. LOUIS INTL PTCLDY    20  11  68 W8        30.63S WCI  10
SPIRIT OF STL  CLEAR     16  12  84 SW3       30.65S
COLUMBIA       CLEAR     15  10  80 NW6       30.63S WCI   6
JEFFERSON CITY CLEAR     14   9  80 CALM      30.66F
ROLLA          CLEAR     14  10  84 W3        30.59S
OSAGE BEACH    CLEAR     14  10  84 CALM      30.65F
SPRINGFIELD    CLOUDY    16  10  77 CALM      30.61S
BRANSON        PTCLDY    16  10  79 CALM      30.64S
JOPLIN         CLOUDY    13  10  88 CALM      30.66S
WEST PLAINS    CLEAR     16  12  84 W3        30.62S

$$

IAZ060-094-KSZ022-034>040-054-083-096-NEZ052-066-093-091500-
...KANSAS...SOUTHEAST NEBRASKA AND IOWA...

CITY           SKY/WX    TMP DP  RH WIND       PRES   REMARKS
TOPEKA         CLOUDY    16  10  77 CALM      30.65S
MANHATTAN      CLOUDY    16  12  84 CALM      30.62F
EMPORIA        CLOUDY    16  12  84 SE6       30.62S WCI   7
CHANUTE        CLOUDY    14  10  84 CALM      30.64F
WICHITA        CLOUDY    18  12  77 SE5       30.59R WCI  11
OMAHA          MOCLDY     9   3  77 CALM      30.62F
LINCOLN        CLOUDY     9   3  77 CALM      30.62R
FALLS CITY     CLOUDY    10   6  84 CALM      30.63R
LAMONI         CLEAR      7   3  84 NW5       30.60S WCI  -2
DES MOINES     MOCLDY    10   5  80 W6        30.61  WCI   0

$$




USA.gov is the U.S. government's official web portal to all federal, state and local government web resources and services.